Location: Street
(51.1247°N, 2.7429°W)
Time: 15:18:12
(UTC+00:00)

Tiros 1 - All Passes

Search period start: 26 November 2020 00:00
Search period end: 06 December 2020 00:00
Orbit: 630 x 664 km, 48.4° (Epoch: 25 November)

Date Brightness Start Highest point End Pass type
(mag) Time Alt. Az. Time Alt. Az. Time Alt. Az.
26 Nov - 15:37:50 10° S 15:40:29 15° SE 15:43:07 10° ESE daylight
26 Nov - 17:17:20 10° SW 17:21:50 40° SSE 17:26:18 10° E visible
26 Nov - 18:58:58 10° WSW 19:03:43 64° S 19:08:24 10° E visible
26 Nov - 20:41:04 10° W 20:45:39 48° SSW 20:50:11 10° SE visible
26 Nov - 22:23:47 10° W 22:27:08 19° SW 22:30:27 10° S night (unlit)
27 Nov - 16:02:04 10° SSW 16:06:00 25° SSE 16:09:55 10° E daylight
27 Nov - 17:42:58 10° WSW 17:47:39 55° SSE 17:52:19 10° E visible
27 Nov - 19:24:55 10° W 19:29:39 61° S 19:34:19 10° ESE visible
27 Nov - 21:07:09 10° W 21:11:25 33° SSW 21:15:37 10° SE visible
27 Nov - 22:52:10 10° SW 22:52:34 10° SW 22:52:56 10° SW night (unlit)
28 Nov - 14:47:58 10° S 14:50:23 14° SE 14:52:48 10° ESE daylight
28 Nov - 16:27:14 10° SW 16:31:42 39° SSE 16:36:08 10° E daylight
28 Nov - 18:08:49 10° WSW 18:13:34 63° S 18:18:17 10° E visible
28 Nov - 19:50:54 10° W 19:55:31 49° SSW 20:00:05 10° ESE visible
28 Nov - 21:33:32 10° W 21:37:02 21° SW 21:40:30 10° SSE night (unlit)
29 Nov - 15:12:03 10° SSW 15:15:53 24° SSE 15:19:44 10° E daylight
29 Nov - 16:52:50 10° WSW 16:57:31 53° SSE 17:02:11 10° E visible
29 Nov - 18:34:45 10° W 18:39:29 62° S 18:44:11 10° ESE visible
29 Nov - 20:16:58 10° W 20:21:18 35° SSW 20:25:34 10° SE visible
29 Nov - 22:01:09 10° WSW 22:02:29 11° SW 22:03:48 10° SSW night (unlit)
30 Nov - 13:58:09 10° SSE 14:00:17 13° SE 14:02:26 10° ESE daylight
30 Nov - 15:37:08 10° SW 15:41:34 37° SSE 15:45:59 10° E daylight
30 Nov - 17:18:39 10° WSW 17:23:25 63° S 17:28:08 10° E visible
30 Nov - 19:00:44 10° W 19:05:23 51° SSW 19:09:59 10° ESE visible
30 Nov - 20:43:18 10° W 20:46:56 22° SW 20:50:32 10° SSE visible
01 Dec - 14:22:01 10° SSW 14:25:47 23° SE 14:29:32 10° E daylight
01 Dec - 16:02:41 10° WSW 16:07:22 52° SSE 16:12:02 10° E daylight
01 Dec - 17:44:35 10° W 17:49:21 63° S 17:54:04 10° ESE visible
01 Dec - 19:26:47 10° W 19:31:10 36° SSW 19:35:30 10° SE visible
01 Dec - 21:10:35 10° WSW 21:12:24 12° SW 21:14:11 10° SSW visible
02 Dec - 13:08:24 10° SSE 13:10:12 12° SE 13:11:59 10° ESE daylight
02 Dec - 14:47:02 10° SW 14:51:26 36° SSE 14:55:49 10° E daylight
02 Dec - 16:28:30 10° WSW 16:33:15 62° S 16:38:00 10° E daylight
02 Dec - 18:10:34 10° W 18:15:14 53° SSW 18:19:52 10° ESE visible
02 Dec - 19:53:04 10° W 19:56:49 23° SW 20:00:32 10° SSE visible
03 Dec - 13:32:01 10° SSW 13:35:40 22° SE 13:39:19 10° E daylight
03 Dec - 15:12:33 10° WSW 15:17:13 51° SSE 15:21:52 10° E daylight
03 Dec - 16:54:26 10° W 16:59:11 63° S 17:03:55 10° ESE visible
03 Dec - 18:36:36 10° W 18:41:03 38° SSW 18:45:26 10° SE visible
03 Dec - 20:20:08 10° WSW 20:22:18 13° SW 20:24:27 10° SSW visible
04 Dec - 12:18:46 10° SSE 12:20:06 11° SE 12:21:26 10° ESE daylight
04 Dec - 13:56:57 10° SW 14:01:18 34° SSE 14:05:39 10° E daylight
04 Dec - 15:38:20 10° WSW 15:43:06 62° S 15:47:51 10° E daylight
04 Dec - 17:20:24 10° W 17:25:05 54° SSW 17:29:45 10° ESE visible
04 Dec - 19:02:51 10° W 19:06:43 24° SSW 19:10:32 10° SSE visible
05 Dec - 12:42:01 10° SSW 12:45:33 21° SE 12:49:04 10° E daylight
05 Dec - 14:22:26 10° WSW 14:27:05 49° SSE 14:31:43 10° E daylight
05 Dec - 16:04:16 10° W 16:09:02 64° S 16:13:47 10° ESE daylight
05 Dec - 17:46:26 10° W 17:50:54 40° SSW 17:55:21 10° SE visible
05 Dec - 19:29:45 10° WSW 19:32:13 14° SW 19:34:40 10° S visible
